{"data":{"norad_id":61845,"epoch":"2026-05-25T00:51:44.122176Z","epoch_age_seconds":68368,"freshness":"FRESH","line1":"1 61845U 24202A   26145.03592734  .00000546  00000+0  29391-4 0  9997","line2":"2 61845  43.0017 155.5941 0001425 271.7058  88.3630 15.27560155 87722","mean_motion":15.27560155,"eccentricity":0.0001425,"inclination_deg":43.0017,"raan_deg":155.5941,"arg_perigee_deg":271.7058,"mean_anomaly_deg":88.363,"bstar":2.9391e-5,"rev_number":8772,"period_min":94.267973361743,"perigee_km":482.13079226561,"apogee_km":484.08624723874,"semimajor_km":6861.2455197522,"source":"CELESTRAK","updated_at":"2026-05-25T13:38:19.449196Z"}}